(277746) = 2006 DS107 = 2009 WW93

Discovered at Kitt Peak on 2006-02-25 by Spacewatch.

Orbit

Orbit type: Main Belt

Note: WebGL enabled browser required.

epoch2023-02-25.0
epoch JD2460000.5
perihelion date2020-06-18.16086
perihelion JD2459018.66086
argument of perihelion (°)214.68468
ascending node (°)174.71904
inclination (°)6.00382
eccentricity0.1598786
perihelion distance (AU)2.6033989
Tisserand w.r.t. Jupiter3.2
ΔV w.r.t. Earth (km/sec)10.3
semimajor axis (AU)3.0988365
mean anomaly (°)177.39697
mean daily motion (°/day)0.18067820
aphelion distance (AU)3.594
period (years)5.46
P-vector [x]0.87089460
P-vector [y]0.47127172
P-vector [z]0.13944736
Q-vector [x]-0.49137554
Q-vector [y]0.82938512
Q-vector [z]0.26583906
absolute magnitude16.37
phase slope0.15
uncertainty0
referenceMPO 745323
observations used239
oppositions14
arc length (days)8089
first opposition used2001
last opposition used2023
residual rms (arc-secs)0.71
perturbers coarse indicatorM-v
perturbers precise indicator003Ek
first observation date used2001-03-25.0
last observation date used2023-05-18.0
computer nameMPCLINUX
JD of orbit computation2456966.784050
perihelion JD uncertainty (days)1.2845E-04
argument of perihelion uncertainty (°)4.4569E-05
ascending node uncertainty (°)3.4290E-05
inclination uncertainty (°)9.9118E-06
eccentricity uncertainty 9.5015E-08
perihelion distance uncertainty (AU)2.9162E-07
Minimum Orbit Intersection Distances (in AU)
for orbit epoch: 2460000.5, reference: E2023-K54
Mercury2.27025
Venus1.87913
Earth1.60925
Mars1.1639
Jupiter1.85589
Saturn6.00429
Uranus14.9412
Neptune27.1434

Observations

244 total observations over interval: 2001 03 25.37166 – 2023 05 18.346521
These data are available for download (format description).

Date (UT) J2000 RA J2000 Dec Magn Location Ref
2001 03 25.37166 13 46 13.33 -07 11 01.7 22.7 R 695 – Kitt Peak MPS 304968
2001 03 25.49896 13 46 08.71 -07 10 24.4   695 – Kitt Peak MPS 304968
2003 09 18.40271 23 43 22.02 -01 45 56.1 19.1   644 – Palomar Mountain/NEAT MPS 304968
2003 09 18.42404 23 43 21.12 -01 46 05.3 19.2   644 – Palomar Mountain/NEAT MPS 304968
2003 09 18.45244 23 43 19.90 -01 46 17.4 19.2   644 – Palomar Mountain/NEAT MPS 304968
2003 10 01.24290 23 34 46.54 -03 16 31.8 20.0 V 291 – LPL/Spacewatch II MPS 304968
2003 10 01.24690 23 34 46.39 -03 16 33.4 20.1 V 291 – LPL/Spacewatch II MPS 304968
2003 10 01.25115 23 34 46.22 -03 16 35.2 20.1 V 291 – LPL/Spacewatch II MPS 304968
2006 02 25.34076 12 12 17.72 -01 15 04.3 21.7 V 691 – Steward Observatory, Kitt Peak-Spacewatch MPS 166283
2006 02 25.35807 12 12 17.12 -01 14 59.1 21.5 V 691 – Steward Observatory, Kitt Peak-Spacewatch MPS 166283
2006 02 25.37539 12 12 16.58 -01 14 54.2 21.7 V 691 – Steward Observatory, Kitt Peak-Spacewatch MPS 166283
2006 03 02.35307 12 09 24.18 -00 49 44.6 21.5 V 691 – Steward Observatory, Kitt Peak-Spacewatch MPS 166283
2006 03 02.37033 12 09 23.53 -00 49 39.2 22.0 V 691 – Steward Observatory, Kitt Peak-Spacewatch MPS 166283
2006 03 02.38758 12 09 22.87 -00 49 33.9 21.7 V 691 – Steward Observatory, Kitt Peak-Spacewatch MPS 166283
2006 03 06.35897 12 06 53.51 -00 28 08.1   691 – Steward Observatory, Kitt Peak-Spacewatch MPS 166283
2006 03 06.37668 12 06 52.85 -00 28 01.8   691 – Steward Observatory, Kitt Peak-Spacewatch MPS 166283
2006 03 06.39396 12 06 52.13 -00 27 56.5   691 – Steward Observatory, Kitt Peak-Spacewatch MPS 166283
2009 11 19.99646 04 13 40.71 +12 18 43.4 19.0 V J75 – OAM Observatory, La Sagra MPS 305356
2009 11 20.00278 04 13 40.33 +12 18 41.6 19.8 V J75 – OAM Observatory, La Sagra MPS 305356
2009 11 20.00935 04 13 40.03 +12 18 41.3 18.4 V J75 – OAM Observatory, La Sagra MPS 305356
2009 11 20.01566 04 13 39.66 +12 18 39.2 19.7 V J75 – OAM Observatory, La Sagra MPS 305357
2009 11 20.02225 04 13 39.34 +12 18 38.4 19.5 V J75 – OAM Observatory, La Sagra MPS 305357
2009 11 20.02855 04 13 39.03 +12 18 36.9 19.4 V J75 – OAM Observatory, La Sagra MPS 305357
2009 11 23.37053 04 10 51.16 +12 07 26.2 19.8 V G96 – Mt. Lemmon Survey MPS 305357
2009 11 23.37520 04 10 50.95 +12 07 25.6 19.7 V G96 – Mt. Lemmon Survey MPS 305357
2009 11 23.37985 04 10 50.73 +12 07 24.5 19.8 V G96 – Mt. Lemmon Survey MPS 305357
2009 11 23.38446 04 10 50.48 +12 07 23.5 20.1 V G96 – Mt. Lemmon Survey MPS 305357
2010 02 13.504998 03 59 17.36 +13 42 34.6   C51 – WISE MPS 330798
2010 02 13.835822 03 59 32.70 +13 44 02.5   C51 – WISE MPS 313285
2010 02 13.901910 03 59 35.659 +13 44 19.14   C51 – WISE MPS 903888
2010 02 13.902037 03 59 35.66 +13 44 17.9   C51 – WISE MPS 330798
2010 02 13.968126 03 59 38.87 +13 44 35.7   C51 – WISE MPS 330798
2010 02 14.034341 03 59 41.77 +13 44 53.9   C51 – WISE MPS 313285
2010 02 14.100431 03 59 44.97 +13 45 11.4   C51 – WISE MPS 330798
2010 02 14.166646 03 59 48.02 +13 45 29.5   C51 – WISE MPS 313285
2010 02 14.232861 03 59 51.15 +13 45 46.9   C51 – WISE MPS 313286
2010 02 14.497470 04 00 03.55 +13 46 57.9   C51 – WISE MPS 330798
2010 02 14.629774 04 00 09.83 +13 47 33.0   C51 – WISE MPS 313286
2011 01 30.42047 10 21 28.243 +06 06 46.58 21.6 w F51 – Pan-STARRS 1, Haleakala MPS 379700
2011 01 30.43655 10 21 27.639 +06 06 50.82 21.6 w F51 – Pan-STARRS 1, Haleakala MPS 379700
2011 01 30.45132 10 21 27.064 +06 06 54.64 21.8 w F51 – Pan-STARRS 1, Haleakala MPS 379700
2011 02 04.45194 10 18 12.309 +06 29 31.61 22.0 w F51 – Pan-STARRS 1, Haleakala MPS 379700
2011 02 04.46623 10 18 11.712 +06 29 35.73 22.0 w F51 – Pan-STARRS 1, Haleakala MPS 379700
2011 02 04.48065 10 18 11.095 +06 29 39.97 22.0 w F51 – Pan-STARRS 1, Haleakala MPS 379700
2011 02 07.47026 10 16 06.73 +06 44 15.5   291 – LPL/Spacewatch II MPS 369530
2011 02 07.47399 10 16 06.54 +06 44 16.1   291 – LPL/Spacewatch II MPS 369530
2011 02 07.47766 10 16 06.37 +06 44 17.3   291 – LPL/Spacewatch II MPS 369530
2011 02 07.49391 10 16 05.71 +06 44 22.3   291 – LPL/Spacewatch II MPS 369530
2011 02 07.49761 10 16 05.51 +06 44 23.3   291 – LPL/Spacewatch II MPS 369530
2011 02 07.50126 10 16 05.37 +06 44 24.7   291 – LPL/Spacewatch II MPS 369530
2012 04 28.19432 13 51 34.56 -06 14 30.6 21.5 V G96 – Mt. Lemmon Survey MPS 423636
2012 04 28.20236 13 51 34.20 -06 14 27.2 21.2 V G96 – Mt. Lemmon Survey MPS 423636
2012 04 28.21044 13 51 33.87 -06 14 25.9 21.6 V G96 – Mt. Lemmon Survey MPS 423636
2012 04 28.21851 13 51 33.51 -06 14 24.0 21.1 V G96 – Mt. Lemmon Survey MPS 423636
2014 07 27.55395 00 43 46.390 +05 13 07.62 21.3 w F51 – Pan-STARRS 1, Haleakala MPS 525221
2014 07 27.56481 00 43 46.671 +05 13 08.36 21.3 w F51 – Pan-STARRS 1, Haleakala MPS 525221
2014 07 27.57559 00 43 46.965 +05 13 09.15 21.1 w F51 – Pan-STARRS 1, Haleakala MPS 525221
2014 07 27.58635 00 43 47.248 +05 13 09.93 21.2 w F51 – Pan-STARRS 1, Haleakala MPS 525221
2014 07 29.54699 00 44 40.549 +05 15 00.93 21.3 w F51 – Pan-STARRS 1, Haleakala MPS 525221
2014 07 29.55928 00 44 40.851 +05 15 01.62 21.5 w F51 – Pan-STARRS 1, Haleakala MPS 525221
2014 07 29.57162 00 44 41.155 +05 15 01.93 21.4 w F51 – Pan-STARRS 1, Haleakala MPS 525221
2014 07 29.58399 00 44 41.445 +05 15 02.57 21.2 w F51 – Pan-STARRS 1, Haleakala MPS 525221
2014 07 30.56930 00 45 06.437 +05 15 45.03 20.9 w F51 – Pan-STARRS 1, Haleakala MPS 525221
2014 07 30.58172 00 45 06.728 +05 15 45.46 20.8 w F51 – Pan-STARRS 1, Haleakala MPS 525221
2014 07 30.59421 00 45 07.019 +05 15 45.92 20.9 w F51 – Pan-STARRS 1, Haleakala MPS 525221
2014 07 30.60677 00 45 07.302 +05 15 46.45 21.0 w F51 – Pan-STARRS 1, Haleakala MPS 525221
2014 08 30.45438 00 47 23.976 +04 17 20.27 20.3 w F51 – Pan-STARRS 1, Haleakala MPS 531219
2014 08 30.46584 00 47 23.770 +04 17 17.24 20.4 w F51 – Pan-STARRS 1, Haleakala MPS 531219
2014 08 30.47741 00 47 23.554 +04 17 14.03 20.3 w F51 – Pan-STARRS 1, Haleakala MPS 531219
2014 08 30.48888 00 47 23.342 +04 17 11.00 20.5 w F51 – Pan-STARRS 1, Haleakala MPS 531219
2014 09 18.43676 00 38 40.120 +02 28 01.75 19.7 w F51 – Pan-STARRS 1, Haleakala MPS 532865
2014 09 18.44893 00 38 39.645 +02 27 56.76 19.7 w F51 – Pan-STARRS 1, Haleakala MPS 532865
2014 09 18.46111 00 38 39.174 +02 27 51.78 19.6 w F51 – Pan-STARRS 1, Haleakala MPS 532865
2014 09 18.47336 00 38 38.694 +02 27 46.81 19.6 w F51 – Pan-STARRS 1, Haleakala MPS 532865
2014 09 20.48284 00 37 23.269 +02 13 59.01 19.7 w F51 – Pan-STARRS 1, Haleakala MPS 536111
2014 09 20.49442 00 37 22.806 +02 13 54.17 19.8 w F51 – Pan-STARRS 1, Haleakala MPS 536111
2014 09 20.50591 00 37 22.342 +02 13 49.38 19.7 w F51 – Pan-STARRS 1, Haleakala MPS 536111
2014 09 20.51741 00 37 21.882 +02 13 44.57 19.7 w F51 – Pan-STARRS 1, Haleakala MPS 536111
2014 09 25.30822 00 34 12.76 +01 39 58.8 19.0 V 703 – Catalina Sky Survey MPS 536111
2014 09 25.32347 00 34 12.15 +01 39 50.4 19.8 V 703 – Catalina Sky Survey MPS 536111
2014 09 25.35397 00 34 10.92 +01 39 38.0 19.9 V 703 – Catalina Sky Survey MPS 536111
2014 10 01.27027 00 30 06.81 +00 57 13.7 18.9 V G96 – Mt. Lemmon Survey MPS 538570
2014 10 01.27778 00 30 06.49 +00 57 10.7 19.0 V G96 – Mt. Lemmon Survey MPS 538570
2014 10 01.28527 00 30 06.16 +00 57 07.6 19.2 V G96 – Mt. Lemmon Survey MPS 538570
2014 10 18.25384 00 19 04.11 -00 55 04.7 19.1 V 703 – Catalina Sky Survey MPS 541983
2014 10 18.26614 00 19 03.63 -00 55 07.2 19.4 V 703 – Catalina Sky Survey MPS 541983
2014 10 18.27844 00 19 03.23 -00 55 12.2 19.7 V 703 – Catalina Sky Survey MPS 541983
2014 10 18.29072 00 19 02.74 -00 55 16.8 20.3 V 703 – Catalina Sky Survey MPS 541983
2014 10 24.19581 00 15 59.88 -01 26 41.9 19.6 r G45 – Space Surveillance Telescope, Atom Site MPS 558027
2014 10 24.21373 00 15 59.35 -01 26 47.1 20.1 r G45 – Space Surveillance Telescope, Atom Site MPS 558027
2014 10 24.22481 00 15 59.01 -01 26 50.2 19.8 r G45 – Space Surveillance Telescope, Atom Site MPS 558027
2014 10 24.23587 00 15 58.70 -01 26 54.2 20.3 r G45 – Space Surveillance Telescope, Atom Site MPS 558027
2014 10 26.20110 00 15 06.33 -01 36 06.9 20.5 r G45 – Space Surveillance Telescope, Atom Site MPS 558027
